Location: CAO
(44.5093°N, 80.3921°W)
Time: 08:36:08
(UTC-05:00)

ARIANE 6 FM1 Upper Stage - Pass Details

Date: 26 January 2026
Orbit: 522 x 609 km, 62.0° (Epoch: 8 February)

Event Time Altitude Azimuth Distance (km) Brightness Sun altitude
Rises 18:56:39 0° 244° (WSW) 2,706 7.6 -16.8°
Reaches altitude 10° 18:59:02 10° 254° (WSW) 1,802 6.5 -17.2°
Maximum altitude 19:02:41 32° 319° (NW) 933 4.1 -17.8°
Enters shadow 19:05:17 16° 15° (NNE) 1,432 4.5 -18.3°
